Location: Newark
(7.1028°S, 35.3258°W)
Time: 14:39:26
(UTC+00:00)

Vanguard 3 - Pass Details

Date: 18 February 2020
Orbit: 508 x 3263 km, 33.4° (Epoch: 04 April)

Event Time Altitude Azimuth Distance (km) Brightness Sun altitude
Rises 21:19:41 0° 306° (NW) 6,850 12.5 -9.4°
Reaches altitude 10° 21:23:58 10° 306° (NW) 6,011 12.2 -10.4°
Maximum altitude 21:44:10 90° 216° (SW) 3,142 10.0 -15.3°
Drops below altitude 10° 22:00:39 10° 125° (SE) 5,060 10.8 -19.2°
Sets 22:03:55 0° 125° (SE) 5,773 11.1 -20.0°
